Welcome to the New NWS' Forecast!
Most changes are behind the scenes, but click here for differences you might notice.

Regional Weather Roundup (RWR)

Issued by Gray - Portland, ME (GYX)

                            
000
ASUS41 KGYX 120105
RWRGYX
WEATHER ROUNDUP FOR MAINE AND NEW HAMPSHIRE
NATIONAL WEATHER SERVICE GRAY ME
800 PM EST SUN NOV 11 2018

MEZ002-005-006-010-012-015-018-020-021-024-026-027-029-120200-
MAINE
  
CITY           SKY/WX    TMP DP  RH WIND       PRES   REMARKS
PORTLAND       FAIR      32  12  43 W7        30.27R                  
SANFORD        FAIR      23  18  81 CALM      30.28R                  
BAR HARBOR     FAIR      29  16  58 W8        30.22R                  
WISCASSET      FAIR      26  20  77 CALM      30.27R                  
ROCKLAND       FAIR      27  18  69 W5        30.25R                  
FRYEBURG       FAIR      31   8  38 W9G22     30.24S                  
LEWISTONAUBURN FAIR      26  16  65 CALM      30.25R                  
AUGUSTA        FAIR      29  10  45 NW6       30.25R                  
WATERVILLE     FAIR      28  14  55 MISG      30.22R                  
BANGOR         FAIR      28  13  53 W3        30.22R                  
GREENVILLE       N/A     21  11  65 NW15G28   30.10R WCI   8          
MILLINOCKET    FAIR      26  13  57 W12G29    30.17R WCI  16          
HOULTON        FAIR      25  14  63 W12G21    30.08R WCI  14          
PRESQUE ISLE   FAIR      24  15  68 W16       30.04R WCI  11          
FRENCHVILLE    CLOUDY    26  13  57 NW8       29.98R                  
CARIBOU        FAIR      24  15  68 W10G21    30.01R WCI  14          
$$

NHZ002-005-008-009-011-012-014-120200-
NEW HAMPSHIRE
  
CITY           SKY/WX    TMP DP  RH WIND       PRES   REMARKS
PORTSMOUTH     CLEAR     34  11  38 W5        30.28R                  
ROCHESTER      FAIR      31  13  47 CALM      30.27R                  
NASHUA         FAIR      32  19  58 SW3       30.31R                  
MANCHESTER     FAIR      35  13  40 W6        30.29R                  
CONCORD        FAIR      32  13  45 VRB3      30.29R                  
LACONIA        FAIR      30  16  56 VRB3      30.27R                  
PLYMOUTH       FAIR      26  18  69 CALM      30.27R                  
BERLIN         FAIR      21  12  68 N5        30.21R                  
WHITEFIELD     FAIR      22  15  75 CALM      30.24R                  
JAFFREY        FAIR      31  17  56 W3        30.28R                  
KEENE          FAIR      32  17  54 SW3       30.31R                  
LEBANON        FAIR      27  17  66 S3        30.29R                  
MT WASHINGTON  PTCLDY     3   1  92 W62G69      N/A  WCI -29          
$$

VTZ005-007-008-120200-
VERMONT
  
CITY           SKY/WX    TMP DP  RH WIND       PRES   REMARKS
ST JOHNSBURY     N/A     24  18  77 MISG      30.26R                  
MONTPELIER     FAIR      28  11  48 W6        30.29S                  
BURLINGTON     FAIR      33  15  47 W7        30.31S                  
$$

MAZ007-012-024-CTZ003-RIZ002-NYZ038-NYZ072-120200-
SOUTHERN NEW ENGLAND AND NY
  
CITY           SKY/WX    TMP DP  RH WIND       PRES   REMARKS
BOSTON         FAIR      40  17  39 W10G22    30.32R                  
WORCESTER      FAIR      30  18  60 W8        30.29R                  
NANTUCKET      FAIR      39  22  50 W9        30.31S                  
PROVIDENCE     FAIR      36  21  54 W5        30.34S                  
HARTFORD       FAIR      34  20  56 N5        30.35R                  
ALBANY         FAIR      31  21  66 S3        30.36R                  
NEW YORK CITY  FAIR      45  22  40 NW6       30.36R                  
$$

ANZ081-ANZ082-ANZ150-NHZ014-MEZ023>029-120200-
COASTAL MARINE OBSERVATIONS
  
STATION/POSITION TIME  TEMP    WIND        PRES    WAVE
                       AIR SEA DIR/SP/G            HT/PER
                 (UTC) (F)     (DEG/KT/KT) (MB)    (FT/S)
MOUNT DESERT ROC 0000   36     270/ 23/ 28 1022.4R
MATINICUS ROCK   0000   36     300/ 26/ 32 1022.9R
ISLE OF SHOALS   0000   39     290/ 14/ 15 1024.9R
JEFFREYS LEDGE   0006      51                N/A     4/ 5
CASHES LEDGE BUO 0050   40 51              1024.3R   6/ 6
$$

.............KEY..............
   WCI - WIND CHILL
   TC  - TEMPERATURE IN CELSIUS
   VSB - VISIBILITY IN MILES
   HX  - HEAT INDEX
   FAIR- INDICATES FEW OR NO CLOUDS BELOW 12,000 FT, WITH NO 
         SIGNIFICANT WEATHER AND/OR OBSTRUCTIONS TO VISIBILITY.